Simultaneous Nadir Overpasses (SNOs) Predictions

Prediction of SNOs between AQUA and NPP Satellite Orbit:

Table of predicted SNOs for the next 14.0 days since TLE Epoch: 8/24/2013
Index Date (AQUA) Time (AQUA) Lat,Lon (AQUA) SZA (AQUA ) Date (NPP) Time (NPP) Lat,Lon (NPP) SZA (NPP ) Distance(km) Time Diff (sec)
1 08/25/2013 14:05:37 75.23,-154.57 87.85 08/25/2013 14:05:19 75.24,-154.47 87.84 2.87 18
2 08/25/2013 14:54:47 -76.10, 15.61 93.15 08/25/2013 14:55:46 -76.10, 15.61 93.20 0.05 59
3 08/28/2013 05:32:56 -74.32, 151.37 90.28 08/28/2013 05:31:52 -74.32, 151.44 90.24 2.14 64
4 08/28/2013 06:21:59 75.44, -38.09 88.48 08/28/2013 06:22:13 75.44, -38.09 88.47 0.05 14
5 08/30/2013 21:49:13 -74.77, -91.63 89.89 08/30/2013 21:48:41 -74.77, -91.60 89.87 0.97 32
6 08/30/2013
